sat.trackr.live / text

‹ back to catalog

STARLINK-32413

NORAD 61590 · 2024-187S

PAYLOAD ACTIVE UNKNOWN

§ Identity

Operator
Country
US
Launch date
2024-10-18
Launch site
AFETR
Launch vehicle
Mass (kg)
RCS (m²)

Purposes: comms

External: N2YO · Heavens-Above · Gunter

§ Orbital elements

Epoch: 2026-05-25T01:22:05.612160Z

Period
93.85 min
Inclination
53.1619°
Eccentricity
0.0001272
Mean motion
15.34388282 rev/d
Perigee alt
461.9 km
Apogee alt
463.6 km
Semi-major
6,840.9 km
B*
-7.4233e-6
RAAN
69.7552°
Arg perigee
79.1761°
Mean anomaly
280.9385°
Rev number
9,078

§ Raw data

STARLINK-324131 61590U 24187S   26145.05700940 -.00000627  00000+0 -74233-5 0  99962 61590  53.1619  69.7552 0001272  79.1761 280.9385 15.34388282 90788

JSON: /api/v1/satellites/61590 · /tle

For live sub-satellite position, see the globe view (requires WebGL).

§ Visibility from observer

Set your observer location to see the next 7 days of passes ≥ 10°. The values pass through the URL so the page stays shareable.

No JS? Fill the form by hand. The geolocation button needs JavaScript.